Regional Weather Roundup
Issued by NWS

Home | Current Version | Previous Version | Text Only | Print | Product List | Glossary Off
Versions: 1 2 3 4 5 6 7 8 9 10 11 12 13 14 15 16 17 18 19 20 21 22 23 24 25 26 27 28 29 30 31 32 33 34 35 36 37 38 39 40 41 42 43 44 45 46 47 48 49 50

000
ASUS43 KIND 231409
RWRIN

WEATHER ROUNDUP FOR INDIANA
NATIONAL WEATHER SERVICE INDIANAPOLIS IN
1000 AM EDT THU MAR 23 2017

NOTE: "FAIR" INDICATES FEW OR NO CLOUDS BELOW 12,000 FEET WITH NO
SIGNIFICANT WEATHER AND/OR OBSTRUCTIONS TO VISIBILITY.

* - STATION DOES NOT REPORT WEATHER SUCH AS PRECIPITATION OR FOG.

+ - STATION NOT QUALITY CONTROLLED BY THE NATIONAL WEATHER SERVICE.
    USE DATA WITH CAUTION...ESPECIALLY DEWPOINT AND RELATIVE
    HUMIDITY OBSERVATIONS.

INZ001>003-010>013-019-020-231500-
NORTHWEST INDIANA

CITY           SKY/WX    TMP DP  RH WIND       PRES   REMARKS
GARY /AIRPORT/ CLOUDY    34  16  47 SE14      30.42F WCI  24
KNOX *+        CLOUDY    32  -6  19 SE10      30.44F WCI  24
LA PORTE +     CLOUDY    30  18  60 SE12      30.44S WCI  21
MICHIGAN CITY+ CLOUDY    32  16  51 SE9       30.43F WCI  24
MONTICELLO +   CLOUDY    31  20  63 SE6       30.42F WCI  25
RENSSELAER +     N/A     32  21  64 SE12      30.42F WCI  23
VALPARAISO     CLOUDY    32  17  54 E15       30.42F WCI  22

$$

LMZ046-743>745-231500-
SOUTHERN LAKE MICHIGAN

STATION/POSITION TIME  TEMP    WIND        PRES    WAVE
                       AIR SEA DIR/SP/G            HT
                 (UTC) (F)     (DEG/KT/KT) (MB)    (FT)
BURNS HARBOR     1340   32     130/  9/ 14 1030.1F
MICHIGAN CITY    1340   30     120/ 12/ 16   N/A

$$

INZ004-005-014>016-021>024-231500-
NORTH CENTRAL INDIANA

CITY           SKY/WX    TMP DP  RH WIND       PRES   REMARKS
ELKHART        CLOUDY    30  10  43 SE17      30.45F WCI  18
GOSHEN         CLOUDY    31   8  38 SE13      30.46S WCI  21
LOGANSPORT +   CLOUDY    32  21  64 SE14      30.44F WCI  22
PERU/GRISSOM   CLOUDY    32  20  62 E14       30.42F WCI  22
ROCHESTER +    CLOUDY    32  19  59 E12       30.45F WCI  23
SOUTH BEND     CLOUDY    29  14  53 SE13      30.46F WCI  19
WARSAW +       CLOUDY    32  12  43 SE10G18   30.46F WCI  24

$$

INZ006>009-017-018-025>027-231500-
NORTHEAST INDIANA

CITY           SKY/WX    TMP DP  RH WIND       PRES   REMARKS
ANGOLA *+      SUNNY     28  12  50 SE15      30.48R WCI  17
AUBURN +       CLOUDY    30  18  59 E9        30.50R WCI  22
FORT WAYNE     CLOUDY    29  18  63 E10       30.49R WCI  20
HUNTINGTON +   CLOUDY    29  17  59 SE8       30.48R WCI  22
KENDALLVILLE + CLOUDY    29  14  53 SE13      30.48R WCI  19

$$

INZ028-029-035-036-043>045-051>053-231500-
WEST CENTRAL INDIANA

CITY           SKY/WX    TMP DP  RH WIND       PRES   REMARKS
CRAWFORDSVL +  SUNNY     33  21  62 SE14      30.41F WCI  23
GREENCASTLE +  PTSUNNY   34  21  60 SE12      30.41S WCI  25
LAFAYETTE      CLOUDY    32  22  66 SE9       30.42F WCI  24
TERRE HAUTE    SUNNY     35  20  54 SE13      30.40S WCI  26

$$

INZ030>032-037>040-046>048-054>057-064-065-231500-
CENTRAL INDIANA

CITY           SKY/WX    TMP DP  RH WIND       PRES   REMARKS
ANDERSON       MOSUNNY   32  19  59 E10       30.45R WCI  24
CP ATTERBURY + MOSUNNY   34  21  60 SE8       30.43S WCI  27
COLUMBUS       SUNNY     36  21  55 E12       30.44R
FRANKFORT +    CLOUDY    34  24  67 SE13      30.43S WCI  25
GREENWOOD *+   PTSUNNY   33  21  62 SE7       30.44R WCI  27
INDIANAPOLIS   MOSUNNY   34  19  54 SE12      30.43R WCI  25
-EAGLE CREEK   MOSUNNY   34  18  52 SE9       30.42R WCI  27
KOKOMO +       MOSUNNY   32  22  66 E12       30.45F WCI  23
MARION +       CLOUDY    31  20  62 SE10      30.46S WCI  23
MT COMFORT *+  MOSUNNY   34  21  60 E10       30.44R WCI  26
SHELBYVILLE    CLOUDY    35  19  52 E14       30.43R WCI  26
ZIONSVILLE +   MOSUNNY   32  20  60 SE10      30.43S WCI  23

$$

INZ033-034-041-042-049-050-058-059-231500-
EAST CENTRAL INDIANA

CITY           SKY/WX    TMP DP  RH WIND       PRES   REMARKS
MUNCIE         CLOUDY    33  18  53 SE12      30.46R WCI  24
RICHMOND +     PTSUNNY   32  19  59 E15       30.45R WCI  22

$$

INZ060-061-067>069-081>083-085>088-231500-
SOUTHWEST INDIANA

CITY           SKY/WX    TMP DP  RH WIND       PRES   REMARKS
EVANSVILLE     MOSUNNY   40  21  46 SE8       30.38S
HUNTINGBURG *+ MOSUNNY   40  21  46 SE12      30.38S
WASHINGTON +   MOSUNNY   38  20  48 MISG      30.40R

$$

INZ062-063-066-070>080-084-089>092-231500-
SOUTH CENTRAL AND SOUTHEAST INDIANA

CITY           SKY/WX    TMP DP  RH WIND       PRES   REMARKS
BEDFORD +      MOSUNNY   36  19  51 E12       30.40F
BLOOMINGTON    PTSUNNY   36  19  50 SE12      30.39S
MADISON *+     SUNNY     36  18  48 E9        30.44S
NORTH VERNON + SUNNY     34  16  47 E7        30.43S WCI  28
SEYMOUR +      SUNNY     37  19  48 E9        30.42F

$$





USA.gov is the U.S. government's official web portal to all federal, state and local government web resources and services.